Seminole, TX

7:14 AM CST on February 21, 2017 (GMT -0600)
Seminole

Weather History for KGNC - March, 2014

Change the Weather History Date:

Sunday, March 23, 2014

  Actual Average (KHOB) Record (KHOB)
Temperature  
Mean Temperature 44 °F -  
Max Temperature 56 °F 67 °F 84 °F (1998)
Min Temperature 31 °F 41 °F 16 °F (1952)
Degree Days  
Heating Degree Days 22    
Moisture  
Dew Point 21 °F    
Average Humidity 42    
Maximum Humidity 70    
Minimum Humidity 26    
Precipitation  
Precipitation 0.00 in - - ()
Sea Level Pressure  
Sea Level Pressure 30.28 in    
Wind  
Wind Speed 11 mph (East)    
Max Wind Speed 23 mph    
Max Gust Speed 30 mph    
Visibility 10 miles    
Events      
Averages and records for this station are not official NWS values.
T = Trace of Precipitation, MM = Missing Value Source: NWS Daily Summary

Daily Weather History Graph

Daily Weather History Graph

Search for Another Location

Airport or City:

Trip Planner

Search our weather history database for the weather conditions in past years. The results will help you decide how hot, cold, wet, or windy it might be!

Date:

Astronomy

Mar. 23, 2014 Rise Set
Actual Time 7:50 AM CDT 8:04 PM CDT
Civil Twilight 7:25 AM CDT 8:28 PM CDT
Nautical Twilight 6:57 AM CDT 8:57 PM CDT
Astronomical Twilight 6:27 AM CDT 9:26 PM CDT
Moon 2:07 AM CDT (3/23) 12:49 PM CDT (3/23)
Length of Visible Light 13h 03m
Length of Day
12h 14m
Waning Gibbous, 54% of the Moon is Illuminated
Mar 23
Waning Gibbous
Mar 23
Last Quarter
Mar 30
New
Apr 7
First Quarter
Apr 15
Full

Hourly Weather History & Observations

Time (CDT) Temp. Windchill Dew Point Humidity Pressure Visibility Wind Dir Wind Speed Gust Speed Precip Events Conditions
12:15 AM 46.4 °F 41.5 °F 32.0 °F 57% 30.11 in 10.0 mi East 10.4 mph - N/A   Clear
12:35 AM 45.7 °F 41.0 °F 32.0 °F 59% 30.12 in 10.0 mi East 9.2 mph - N/A   Clear
12:55 AM 45.0 °F 39.7 °F 32.0 °F 60% 30.12 in 10.0 mi East 10.4 mph - N/A   Clear
1:15 AM 44.6 °F 38.8 °F 32.0 °F 61% 30.13 in 10.0 mi East 11.5 mph - N/A   Clear
1:35 AM 43.5 °F 38.9 °F 32.0 °F 64% 30.16 in 10.0 mi East 8.1 mph - N/A   Clear
1:55 AM 42.6 °F 37.2 °F 32.0 °F 66% 30.16 in 10.0 mi ENE 9.2 mph - N/A   Clear
2:15 AM 42.3 °F 35.9 °F 32.0 °F 67% 30.17 in 10.0 mi ENE 11.5 mph 18.4 mph N/A   Clear
2:35 AM 41.5 °F 34.2 °F 31.6 °F 68% 30.18 in 10.0 mi ENE 13.8 mph - N/A   Clear
2:55 AM 41.2 °F 33.4 °F 31.5 °F 68% 30.19 in 10.0 mi ENE 15.0 mph - N/A   Clear
3:15 AM 40.3 °F 32.2 °F 31.1 °F 70% 30.22 in 10.0 mi ENE 15.0 mph 19.6 mph N/A   Clear
3:35 AM 40.1 °F 31.6 °F 30.2 °F 68% 30.23 in 10.0 mi ENE 16.1 mph - N/A   Clear
3:55 AM 39.2 °F 30.2 °F 29.5 °F 68% 30.23 in 10.0 mi ENE 17.3 mph 21.9 mph N/A   Clear
4:15 AM 38.3 °F 29.7 °F 28.2 °F 67% 30.24 in 10.0 mi ENE 15.0 mph - N/A   Clear
4:35 AM 38.3 °F 29.7 °F 26.8 °F 63% 30.24 in 10.0 mi NE 15.0 mph - N/A   Clear
4:55 AM 37.9 °F 30.0 °F 25.7 °F 61% 30.25 in 10.0 mi NE 12.7 mph - N/A   Clear
5:15 AM 37.8 °F 29.0 °F 24.8 °F 60% 30.26 in 10.0 mi NE 15.0 mph - N/A   Clear
5:35 AM 37.4 °F 28.5 °F 24.3 °F 59% 30.27 in 10.0 mi NE 15.0 mph 20.7 mph N/A   Clear
5:55 AM 37.4 °F 27.8 °F 23.9 °F 58% 30.28 in 10.0 mi NE 17.3 mph 24.2 mph N/A   Clear
6:15 AM 36.9 °F 27.1 °F 23.4 °F 58% 30.30 in 10.0 mi NE 17.3 mph 25.3 mph N/A   Clear
6:35 AM 35.8 °F 24.2 °F 20.3 °F 53% 30.30 in 7.0 mi NE 23.0 mph 29.9 mph N/A   Clear
6:55 AM 34.2 °F 23.0 °F 16.0 °F 47% 30.32 in 5.0 mi NE 19.6 mph 29.9 mph N/A   Haze
7:15 AM 32.9 °F 21.6 °F 14.9 °F 48% 30.35 in 7.0 mi NE 18.4 mph 24.2 mph N/A   Clear
7:35 AM 32.0 °F 23.0 °F 12.9 °F 45% 30.37 in 10.0 mi NE 11.5 mph 24.2 mph N/A   Clear
7:55 AM 31.3 °F 22.1 °F 12.4 °F 46% 30.38 in 10.0 mi NNE 11.5 mph 16.1 mph N/A   Clear
8:15 AM 31.1 °F 22.4 °F 12.0 °F 45% 30.39 in 10.0 mi NNE 10.4 mph - N/A   Clear
8:35 AM 31.8 °F 22.3 °F 11.5 °F 43% 30.39 in 10.0 mi NNE 12.7 mph 18.4 mph N/A   Clear
8:55 AM 32.2 °F 22.3 °F 11.5 °F 42% 30.39 in 10.0 mi NE 13.8 mph 21.9 mph N/A   Clear
9:15 AM 33.1 °F 22.6 °F 11.1 °F 40% 30.39 in 10.0 mi NNE 16.1 mph 23.0 mph N/A   Clear
9:35 AM 34.0 °F 24.6 °F 10.9 °F 38% 30.40 in 10.0 mi NE 13.8 mph 18.4 mph N/A   Clear
9:55 AM 35.2 °F 25.4 °F 11.1 °F 37% 30.40 in 10.0 mi NNE 16.1 mph 24.2 mph N/A   Clear
10:15 AM 36.5 °F 27.0 °F 12.2 °F 37% 30.40 in 10.0 mi NNE 16.1 mph 19.6 mph N/A   Clear
10:35 AM 37.4 °F 28.2 °F 12.4 °F 36% 30.40 in 10.0 mi NE 16.1 mph 21.9 mph N/A   Mostly Cloudy
10:55 AM 38.3 °F 29.3 °F 13.5 °F 36% 30.41 in 10.0 mi NE 16.1 mph - N/A   Overcast
11:15 AM 38.8 °F 31.2 °F 13.3 °F 35% 30.41 in 10.0 mi NE 12.7 mph - N/A   Overcast
11:35 AM 39.9 °F 33.4 °F 13.8 °F 35% 30.41 in 10.0 mi NE 10.4 mph - N/A   Overcast
11:55 AM 40.6 °F 33.4 °F 14.0 °F 34% 30.41 in 10.0 mi NE 12.7 mph 16.1 mph N/A   Overcast
12:15 PM 42.1 °F 35.7 °F 14.7 °F 33% 30.41 in 10.0 mi NE 11.5 mph - N/A   Overcast
12:35 PM 43.0 °F 36.8 °F 14.9 °F 32% 30.40 in 10.0 mi NE 11.5 mph 16.1 mph N/A   Overcast
12:55 PM 44.1 °F 39.0 °F 14.9 °F 31% 30.39 in 10.0 mi NE 9.2 mph 19.6 mph N/A   Overcast
1:15 PM 44.6 °F 40.2 °F 14.7 °F 30% 30.37 in 10.0 mi ENE 8.1 mph - N/A   Overcast
1:35 PM 45.9 °F 41.2 °F 15.4 °F 30% 30.37 in 10.0 mi ENE 9.2 mph 18.4 mph N/A   Overcast
1:55 PM 48.2 °F - 16.3 °F 28% 30.35 in 10.0 mi ENE 6.9 mph - N/A   Overcast
2:15 PM 48.2 °F - 16.9 °F 29% 30.34 in 10.0 mi ENE 5.8 mph - N/A   Mostly Cloudy
2:35 PM 48.7 °F - 16.9 °F 28% 30.32 in 10.0 mi ENE 5.8 mph - N/A   Scattered Clouds
2:55 PM 50.4 °F - 18.1 °F 28% 30.31 in 10.0 mi Calm Calm - N/A   Clear
3:15 PM 51.1 °F - 18.3 °F 27% 30.30 in 10.0 mi East 6.9 mph - N/A   Clear
3:35 PM 50.7 °F - 18.3 °F 28% 30.28 in 10.0 mi Calm Calm - N/A   Clear
3:55 PM 53.4 °F - 19.2 °F 26% 30.27 in 10.0 mi Calm Calm - N/A   Clear
4:15 PM 54.1 °F - 20.5 °F 27% 30.26 in 10.0 mi Calm Calm - N/A   Clear
4:35 PM 54.5 °F - 21.2 °F 27% 30.25 in 10.0 mi SSE 3.5 mph - N/A   Clear
4:55 PM 55.2 °F - 22.3 °F 28% 30.25 in 10.0 mi East 4.6 mph - N/A   Clear
5:15 PM 56.3 °F - 22.6 °F 27% 30.23 in 10.0 mi SE 4.6 mph - N/A   Clear
5:35 PM 55.6 °F - 22.6 °F 28% 30.22 in 10.0 mi SSE 4.6 mph - N/A   Clear
5:55 PM 55.4 °F - 23.0 °F 29% 30.21 in 10.0 mi South 5.8 mph - N/A   Clear
6:15 PM 55.2 °F - 23.0 °F 29% 30.21 in 10.0 mi Calm Calm - N/A   Clear
6:35 PM 55.4 °F - 23.0 °F 29% 30.21 in 10.0 mi SE 4.6 mph - N/A   Clear
6:55 PM 55.4 °F - 23.5 °F 29% 30.21 in 10.0 mi SE 8.1 mph - N/A   Clear
7:15 PM 54.5 °F - 23.2 °F 30% 30.20 in 10.0 mi SSE 5.8 mph - N/A   Clear
7:35 PM 52.9 °F - 22.6 °F 31% 30.21 in 10.0 mi South 8.1 mph - N/A   Clear
7:55 PM 52.2 °F - 22.1 °F 31% 30.22 in 10.0 mi SSE 6.9 mph - N/A   Clear
8:15 PM 50.4 °F - 22.5 °F 34% 30.22 in 10.0 mi South 5.8 mph - N/A   Clear
8:35 PM 48.9 °F - 21.9 °F 35% 30.22 in 10.0 mi SSE 4.6 mph - N/A   Clear
8:55 PM 47.3 °F - 21.6 °F 36% 30.22 in 10.0 mi SSE 3.5 mph - N/A   Clear
9:15 PM 46.4 °F 44.3 °F 21.7 °F 38% 30.23 in 10.0 mi SSE 4.6 mph - N/A   Clear
9:35 PM 46.0 °F 43.9 °F 21.0 °F 37% 30.23 in 10.0 mi SSE 4.6 mph - N/A   Clear
9:55 PM 44.8 °F 42.4 °F 20.8 °F 39% 30.23 in 10.0 mi South 4.6 mph - N/A   Clear
10:15 PM 45.1 °F 42.0 °F 20.5 °F 38% 30.23 in 10.0 mi SSE 5.8 mph - N/A   Clear
10:35 PM 43.7 °F 41.1 °F 20.3 °F 39% 30.22 in 10.0 mi SSE 4.6 mph - N/A   Clear
10:55 PM 43.0 °F 39.5 °F 19.4 °F 39% 30.22 in 10.0 mi SSE 5.8 mph - N/A   Clear
11:15 PM 42.3 °F 37.9 °F 19.2 °F 40% 30.21 in 10.0 mi SSE 6.9 mph - N/A   Clear
11:35 PM 40.8 °F 36.9 °F 18.9 °F 41% 30.21 in 10.0 mi SSE 5.8 mph - N/A   Clear
11:55 PM 40.1 °F 36.1 °F 18.5 °F 42% 30.21 in 10.0 mi South 5.8 mph - N/A   Clear